| time (UTC) | temp F | wind direction | speed knots | gust knots | rain 1hr in | rain 24hr in | rain mn in | humidity % | barometer mb |
| 20260904151510 | 81 | 14 | 0.9 | 6.1 | 0.00 | 0.00 | 0.00 | 72 | 1007.2 |
| 20260904144510 | 80 | 359 | 1.7 | 6.1 | 0.00 | 0.00 | 0.00 | 75 | 1007.5 |
| 20260904143038 | 79 | 273 | 0.0 | 5.2 | 0.00 | 0.00 | 0.00 | 83 | 1007.5 |
| 20260904141617 | 77 | 273 | 1.7 | 5.2 | 0.00 | 0.00 | 0.00 | 86 | 1007.6 |
| 20260904140039 | 76 | 241 | 2.6 | 7.0 | 0.00 | 0.00 | 0.00 | 88 | 1007.6 |
| 20260904134505 | 76 | 249 | 0.9 | 7.8 | 0.00 | 0.00 | 0.00 | 88 | 1007.7 |
| 20260904133039 | 76 | 274 | 2.6 | 7.8 | 0.00 | 0.02 | 0.00 | 88 | 1007.7 |
| 20260904131610 | 75 | 267 | 2.6 | 7.0 | 0.00 | 0.02 | 0.00 | 89 | 1007.8 |
| 20260904130042 | 74 | 277 | 2.6 | 6.1 | 0.00 | 0.02 | 0.00 | 91 | 1007.9 |
| 20260904124554 | 73 | 255 | 2.6 | 6.1 | 0.00 | 0.02 | 0.00 | 91 | 1007.9 |
| 20260904123012 | 73 | 263 | 3.5 | 7.0 | 0.00 | 0.13 | 0.00 | 92 | 1008.1 |
| 20260904121547 | 72 | 262 | 1.7 | 7.8 | 0.00 | 0.13 | 0.00 | 94 | 1008.1 |
| 20260904120013 | 72 | 266 | 2.6 | 7.0 | 0.00 | 0.13 | 0.00 | 95 | 1008.1 |
| 20260904114554 | 71 | 270 | 2.6 | 6.1 | 0.00 | 0.13 | 0.00 | 95 | 1008.2 |
| 20260904113022 | 71 | 248 | 0.9 | 7.8 | 0.00 | 0.17 | 0.00 | 95 | 1008.3 |
| 20260904111611 | 71 | 258 | 0.9 | 7.8 | 0.00 | 0.17 | 0.00 | 95 | 1008.2 |
| 20260904110036 | 71 | 264 | 0.9 | 3.5 | 0.00 | 0.17 | 0.00 | 95 | 1008.2 |
| 20260904104611 | 71 | 264 | 0.0 | 2.6 | 0.00 | 0.17 | 0.00 | 95 | 1008.2 |
| 20260904103031 | 71 | 264 | 0.9 | 2.6 | 0.00 | 0.65 | 0.00 | 95 | 1007.9 |
| 20260904101609 | 71 | 264 | 0.0 | 0.0 | 0.00 | 0.65 | 0.00 | 95 | 1007.8 |
| 20260904100043 | 71 | 264 | 0.0 | 0.0 | 0.00 | 0.65 | 0.00 | 95 | 1007.7 |
| 20260904094531 | 71 | 264 | 0.0 | 0.0 | 0.00 | 0.65 | 0.00 | 94 | 1007.5 |
| 20260904090007 | 71 | 264 | 0.0 | 3.5 | 0.00 | 0.87 | 0.00 | 94 | 1007.8 |
| 20260904084543 | 71 | 264 | 1.7 | 5.2 | 0.00 | 0.87 | 0.00 | 94 | 1007.8 |
| 20260904083104 | 71 | 275 | 2.6 | 6.1 | 0.00 | 0.88 | 0.00 | 94 | 1007.7 |
| 20260904081537 | 70 | 279 | 0.9 | 2.6 | 0.00 | 0.88 | 0.00 | 94 | 1007.7 |
| 20260904080111 | 71 | 279 | 0.0 | 0.0 | 0.00 | 0.88 | 0.00 | 94 | 1007.6 |
| 20260904074527 | 71 | 279 | 0.0 | 0.0 | 0.00 | 0.88 | 0.00 | 94 | 1007.7 |
| 20260904073106 | 71 | 279 | 0.0 | 0.0 | 0.00 | 0.88 | 0.00 | 94 | 1007.6 |
| 20260904071527 | 71 | 279 | 0.0 | 1.7 | 0.00 | 0.88 | 0.00 | 94 | 1008.2 |
| 20260904070105 | 71 | 279 | 0.0 | 1.7 | 0.00 | 0.88 | 0.00 | 94 | 1008.2 |
| 20260904064517 | 71 | 279 | 0.0 | 1.7 | 0.00 | 0.88 | 0.00 | 94 | 1008.4 |
| 20260904063048 | 71 | 279 | 0.0 | 0.0 | 0.00 | 0.88 | 0.00 | 94 | 1008.4 |
| 20260904061519 | 71 | 279 | 0.0 | 3.5 | 0.00 | 0.88 | 0.00 | 94 | 1008.4 |
| 20260904060100 | 71 | 278 | 0.0 | 3.5 | 0.00 | 0.88 | 0.00 | 94 | 1008.5 |
| 20260904054529 | 71 | 267 | 0.9 | 3.5 | 0.00 | 0.88 | 0.00 | 94 | 1008.6 |
| 20260904044533 | 71 | 277 | 1.7 | 4.3 | 0.00 | 0.88 | 0.00 | 94 | 1009.4 |
| 20260904043109 | 71 | 279 | 0.9 | 4.3 | 0.00 | 0.88 | 0.88 | 94 | 1009.5 |
| 20260904041536 | 71 | 274 | 1.7 | 6.1 | 0.00 | 0.88 | 0.88 | 94 | 1009.5 |
| 20260904040003 | 71 | 272 | 1.7 | 6.1 | 0.00 | 0.88 | 0.88 | 94 | 1009.4 |
| 20260904034552 | 71 | 280 | 1.7 | 5.2 | 0.00 | 0.88 | 0.88 | 94 | 1009.7 |
| 20260904033015 | 71 | 285 | 0.0 | 0.0 | 0.00 | 0.88 | 0.88 | 94 | 1010.0 |
| 20260904031552 | 71 | 285 | 0.0 | 6.1 | 0.00 | 0.88 | 0.88 | 94 | 1009.7 |
| 20260904030016 | 71 | 283 | 0.0 | 2.6 | 0.00 | 0.88 | 0.88 | 94 | 1009.7 |
| 20260904024555 | 71 | 124 | 2.6 | 6.1 | 0.00 | 0.88 | 0.88 | 94 | 1010.0 |
| 20260904023021 | 71 | 276 | 0.9 | 2.6 | 0.00 | 0.88 | 0.88 | 94 | 1010.1 |
| 20260904021609 | 71 | 276 | 0.0 | 2.6 | 0.00 | 0.88 | 0.88 | 94 | 1010.2 |
| 20260904020036 | 71 | 277 | 0.9 | 3.5 | 0.00 | 0.88 | 0.88 | 94 | 1010.2 |
| 20260904014631 | 71 | 272 | 0.0 | 0.0 | 0.00 | 0.88 | 0.88 | 93 | 1010.4 |
| 20260904013039 | 71 | 272 | 0.0 | 0.0 | 0.00 | 0.88 | 0.88 | 93 | 1010.9 |
| 20260904011505 | 71 | 272 | 0.0 | 2.6 | 0.00 | 0.88 | 0.88 | 93 | 1010.7 |
| 20260904010045 | 72 | 272 | 0.0 | 3.5 | 0.00 | 0.88 | 0.88 | 93 | 1010.6 |
| 20260904004504 | 72 | 279 | 1.7 | 4.3 | 0.00 | 0.88 | 0.88 | 93 | 1010.6 |
| 20260904003043 | 72 | 279 | 0.0 | 2.6 | 0.00 | 0.88 | 0.88 | 93 | 1010.3 |
| 20260904001518 | 72 | 280 | 0.9 | 4.3 | 0.00 | 0.88 | 0.88 | 93 | 1010.0 |
| 20260904000112 | 72 | 279 | 0.9 | 5.2 | 0.00 | 0.88 | 0.88 | 93 | 1010.1 |
| 20260903234510 | 72 | 279 | 0.0 | 2.6 | 0.00 | 0.88 | 0.88 | 93 | 1009.9 |
| 20260903233050 | 72 | 279 | 1.7 | 3.5 | 0.00 | 0.88 | 0.88 | 93 | 1009.7 |
| 20260903231529 | 72 | 275 | 0.0 | 4.3 | 0.00 | 0.88 | 0.88 | 92 | 1009.7 |
| 20260903230054 | 73 | 124 | 2.6 | 7.0 | 0.00 | 0.88 | 0.88 | 92 | 1009.8 |
| 20260903224531 | 73 | 253 | 2.6 | 7.8 | 0.00 | 0.88 | 0.88 | 91 | 1010.0 |
| 20260903223051 | 74 | 283 | 5.2 | 9.6 | 0.00 | 0.88 | 0.88 | 90 | 1010.0 |
| 20260903221613 | 74 | 124 | 2.6 | 8.7 | 0.00 | 0.88 | 0.88 | 90 | 1010.1 |
| 20260903220046 | 74 | 247 | 4.3 | 14.8 | 0.00 | 0.88 | 0.88 | 90 | 1010.0 |
| 20260903214526 | 74 | 256 | 4.3 | 10.4 | 0.00 | 0.88 | 0.88 | 90 | 1009.9 |
| 20260903213102 | 75 | 250 | 3.5 | 12.2 | 0.00 | 0.88 | 0.88 | 90 | 1009.9 |
| 20260903211524 | 74 | 124 | 5.2 | 12.2 | 0.00 | 0.88 | 0.88 | 90 | 1010.0 |
| 20260903210126 | 74 | 264 | 5.2 | 13.0 | 0.00 | 0.88 | 0.88 | 91 | 1010.0 |
| 20260903204519 | 75 | 254 | 3.5 | 13.0 | 0.00 | 0.88 | 0.88 | 89 | 1010.0 |
| 20260903203107 | 75 | 253 | 7.0 | 13.9 | 0.00 | 0.88 | 0.88 | 89 | 1010.0 |
| 20260903201512 | 75 | 216 | 7.0 | 12.2 | 0.00 | 0.88 | 0.88 | 89 | 1010.0 |
| 20260903200045 | 75 | 232 | 4.3 | 11.3 | 0.00 | 0.88 | 0.88 | 89 | 1010.3 |
| 20260903194511 | 76 | 252 | 5.2 | 9.6 | 0.00 | 0.88 | 0.88 | 88 | 1010.3 |
| 20260903193047 | 76 | 124 | 3.5 | 9.6 | 0.00 | 0.88 | 0.88 | 89 | 1010.7 |
| 20260903191514 | 76 | 124 | 6.1 | 10.4 | 0.00 | 0.88 | 0.88 | 89 | 1010.9 |
| 20260903190050 | 76 | 217 | 6.1 | 10.4 | 0.00 | 0.88 | 0.88 | 89 | 1010.9 |
| 20260903184517 | 75 | 248 | 2.6 | 9.6 | 0.00 | 0.88 | 0.88 | 90 | 1011.1 |
| 20260903183058 | 75 | 255 | 3.5 | 9.6 | 0.00 | 0.88 | 0.88 | 90 | 1011.5 |
| 20260903181524 | 74 | 124 | 3.5 | 9.6 | 0.00 | 0.88 | 0.88 | 91 | 1011.5 |
| 20260903180109 | 74 | 251 | 1.7 | 10.4 | 0.00 | 0.88 | 0.88 | 91 | 1011.4 |
| 20260903174536 | 74 | 252 | 4.3 | 11.3 | 0.00 | 0.88 | 0.88 | 92 | 1011.5 |
| 20260903173005 | 73 | 124 | 4.3 | 11.3 | 0.00 | 0.88 | 0.88 | 93 | 1011.5 |
| 20260903171541 | 73 | 124 | 5.2 | 11.3 | 0.00 | 0.88 | 0.88 | 93 | 1011.9 |
| 20260903170012 | 73 | 242 | 6.1 | 12.2 | 0.00 | 0.88 | 0.88 | 94 | 1011.9 |
| 20260903164602 | 73 | 124 | 1.7 | 7.8 | 0.00 | 0.88 | 0.88 | 95 | 1011.6 |
| 20260903163013 | 72 | 124 | 3.5 | 7.0 | 0.00 | 0.88 | 0.88 | 95 | 1011.6 |
| 20260903161546 | 72 | 124 | 3.5 | 7.0 | 0.00 | 0.88 | 0.88 | 95 | 1011.6 |
| 20260903160007 | 73 | 253 | 2.6 | 5.2 | 0.00 | 0.88 | 0.88 | 95 | 1011.7 |
| 20260903154606 | 73 | 124 | 3.5 | 7.8 | 0.00 | 0.88 | 0.88 | 96 | 1011.8 |
| 20260903153019 | 73 | 124 | 0.9 | 7.0 | 0.00 | 0.88 | 0.88 | 96 | 1011.8 |